Location: *
(40.7873°S, 98.7174°E)
Time: 20:43:22
(UTC+00:00)

Cosmos 1153 Rocket - Pass Details

Date: 14 October 2022
Orbit: 953 x 1007 km, 82.9° (Epoch: 05 December)

Event Time Altitude Azimuth Distance (km) Brightness Sun altitude
Rises 19:58:14 0° 203° (SSW) 3,669 7.8 -27.6°
Reaches altitude 10° 20:01:22 10° 218° (SW) 2,712 6.8 -27.2°
Enters shadow 20:03:21 16° 234° (SW) 2,267 6.3 -26.9°
